Location: Écuvilly
(49.6505°N, 2.9206°E)
Time: 17:45:03
(UTC+00:00)

Resurs 01 Rocket - Pass Details

Date: 17 November 2025
Orbit: 626 x 637 km, 97.7° (Epoch: 10 December)

Event Time Altitude Azimuth Distance (km) Brightness Sun altitude
Exits shadow 18:46:22 26° 352° (N) 1,264 3.2 -26.2°
Drops below altitude 10° 18:48:19 10° 349° (N) 2,036 4.3 -26.5°
Sets 18:50:32 0° 348° (NNW) 2,949 5.2 -26.9°
